UBBG

Details ICAO UBBG (KVD)
Name GANJA
Region Azerbiajan
Timezone Asia/Baku (UTC+4.0)
Plans Departing 34
Arriving 43
Stats Elevation 1,083 ft / 330 m (AMSL)
Location 40.737676° 46.317582°
Runways 1
Magnetic Variation 6.404° E
Sunrise 2018-05-22 01:33:21 UTC / 2018-05-22 05:33:21 Local
Sunset 2018-05-22 16:12:16 UTC / 2018-05-22 20:12:16 Local
Advertisement - Login to hide

Runways

ID Width Length Bearing (true) Bearing (mag) Surface Threshold Offset Overrun Length
12 144 ft / 44 m 8,211 ft / 2,503 m 128.25° 121.85° Concrete 0 ft / 0 m 0 ft / 0 m
30 144 ft / 44 m 8,211 ft / 2,503 m 308.26° 301.86° Concrete 0 ft / 0 m 1,630 ft / 497 m

Map

Weather


0- 5 10 15 20 25 30 35+ Temperature / ° C

Clouds and Precipitation
Forecast for 2018-05-22 00:00 UTC. Updated 5 hours ago

Ground ~20,000 ft ~40,000 ft Winds

METAR

UBBG 220430Z 30010KT 9999 SCT100 22/15 Q1019 R30/CLRD// NOSIG

TAF

Not found

Frequencies

Recorded 119.25 MHz ATIS
Approach 124.00 MHz APP
Tower 124.00 MHz TWR
Warning: Do not use this data for real-world aviation or navigation. No guarantee of current accuracy is given.